Погода в Мокром Батае

Россия / Ростовская область     47°02′26″N   39°50′33″E
темп.,
°C
ветер,
м/с
пор.,
м/с
влажн.,
%
обл.,
%
осадки,
мм/ч
давл.,
гПа
погр.,
м
18 апреля, вс
вс1800:00+7сз11755 0.0 102110
03:00+7юв22775 0.0 102110
06:00+7всв2273100 0.0 101947
09:00+9вюв3569100 0.0 1019246
12:00+9вюв3481100 0.8 1018290
15:00+9вюв2386100 0.9 1018251
18:00+9юв238899 0.0 1018179
21:00+8юв229265 0.0 101850
19 апреля, пн
пн1900:00+7ссв119271 0.0 101711
03:00+8ссв1191100 0.0 101715
06:00+8св2290100 0.0 101637
09:00+10вюв1283100 0.0 1017164
12:00+10юв1284100 0.1 1016224
15:00+12в2380100 0.1 1015355
18:00+11вюв2289100 0.1 101432
21:00+10вюв2392100 0.1 101472
20 апреля, вт
вт2000:00+10всв3695100 0.0 1012157
03:00+10всв3898100 1.1 1010263
06:00+12вюв51298100 6.6 1006404
09:00+12в81596100 11.3 1003547
12:00+17юв6107688 0.2 1002873
15:00+17юз81176100 0.6 1003692
18:00+16ююз7127221 0.0 1004908
21:00+12ююз91673100 0.0 1007897
21 апреля, ср
ср2100:00+10ююз111768100 0.0 10081341
03:00+10юз111779100 0.0 10101436
06:00+9юз81484100 0.1 1013957
09:00+12зюз8117648 0.1 10161012
12:00+15зюз8105527 0.1 10171852
15:00+15з795436 0.2 10181899
18:00+14зюз47633 0.1 1019991
21:00+10юз34800 0.1 102180
22 апреля, чт
чт2200:00+8юз22800 0.0 102222
03:00+7юз11780 0.0 102310
06:00+7ссз11793 0.0 102310
09:00+12св22645 0.0 1024466
12:00+16св21515 0.0 10241609
15:00+17св1143100 0.0 10231932
18:00+16в1155100 0.0 102347
21:00+13в2265100 0.1 102340